When you browse on this site, cookies collect data to enhance your experience and personalize the content and advertising you see.
Visit our Privacy Policy to learn more. By continuing to use the site, you agree to this use of cookies and data.
  • In Hungary
  • List of Countries
  • For 7 days
  • Water Temperature
  • Weather Map
  • News
  • Weather Widgets
  • user-avatar
    Login

    Hourly Weather Chinavita

    Today, 6 December, Friday

    Time Temperature Precipitation Wind Pressure Humidity
    00:00 +15°C° 0 mm 1 mps 614 mmHg 96%
    01:00 +14°C° 0 mm 1 mps 613 mmHg 95%
    02:00 +14°C° 0 mm 1 mps 613 mmHg 95%
    03:00 +14°C° 0 mm 1 mps 613 mmHg 94%
    04:00 +13°C° 0 mm 1 mps 613 mmHg 93%
    05:00 +14°C° 0 mm 1 mps 614 mmHg 91%
    06:00 +15°C° 0 mm 1 mps 614 mmHg 88%
    07:00 +16°C° 0 mm 1 mps 615 mmHg 86%
    08:00 +20°C° 0 mm 1 mps 616 mmHg 73%
    09:00 +23°C° 0 mm 1 mps 618 mmHg 60%
    10:00 +26°C° 0 mm 1 mps 619 mmHg 47%
    11:00 +26°C° 0 mm 2 mps 618 mmHg 48%
    12:00 +26°C° 0 mm 2 mps 617 mmHg 49%
    13:00 +27°C° 0 mm 2 mps 616 mmHg 50%
    14:00 +25°C° 0.4 mm 2 mps 616 mmHg 61%
    15:00 +24°C° 0.4 mm 2 mps 615 mmHg 72%
    16:00 +21°C° 0.4 mm 2 mps 614 mmHg 83%
    17:00 +21°C° 0.6 mm 1 mps 614 mmHg 88%
    18:00 +20°C° 0.6 mm 1 mps 614 mmHg 93%
    19:00 +18°C° 0.6 mm 1 mps 614 mmHg 98%
    20:00 +18°C° 0.1 mm 1 mps 615 mmHg 98%
    21:00 +18°C° 0.1 mm 1 mps 615 mmHg 98%
    22:00 +18°C° 0.1 mm 1 mps 615 mmHg 97%
    23:00 +16°C° 0 mm 1 mps 615 mmHg 97%

    Tomorrow, 7 December, Saturday

    Time Temperature Precipitation Wind Pressure Humidity
    00:00 +16°C° 0 mm 1 mps 614 mmHg 97%
    01:00 +15°C° 0 mm 1 mps 614 mmHg 96%
    02:00 +15°C° 0 mm 1 mps 614 mmHg 96%
    03:00 +15°C° 0 mm 1 mps 614 mmHg 96%
    04:00 +15°C° 0 mm 1 mps 614 mmHg 95%
    05:00 +16°C° 0 mm 1 mps 614 mmHg 94%
    06:00 +16°C° 0 mm 1 mps 615 mmHg 93%
    07:00 +16°C° 0 mm 0 mps 615 mmHg 91%
    08:00 +20°C° 0.1 mm 1 mps 616 mmHg 82%
    09:00 +22°C° 0.1 mm 1 mps 617 mmHg 73%
    10:00 +25°C° 0.1 mm 1 mps 618 mmHg 63%
    11:00 +24°C° 0.6 mm 1 mps 617 mmHg 70%
    12:00 +24°C° 0.6 mm 1 mps 616 mmHg 76%
    13:00 +23°C° 0.6 mm 2 mps 615 mmHg 83%
    14:00 +22°C° 1.2 mm 1 mps 614 mmHg 87%
    15:00 +21°C° 1.2 mm 1 mps 614 mmHg 90%
    16:00 +21°C° 1.2 mm 1 mps 613 mmHg 94%
    17:00 +20°C° 0.5 mm 1 mps 613 mmHg 96%
    18:00 +17°C° 0.5 mm 0 mps 613 mmHg 97%
    19:00 +16°C° 0.5 mm 0 mps 613 mmHg 99%
    20:00 +16°C° 0.3 mm 0 mps 614 mmHg 98%
    21:00 +16°C° 0.3 mm 0 mps 614 mmHg 98%
    22:00 +18°C° 0.3 mm 1 mps 615 mmHg 97%
    23:00 +18°C° 0.2 mm 1 mps 614 mmHg 97%

    Day after tomorrow, 8 December, Sunday

    Time Temperature Precipitation Wind Pressure Humidity
    00:00 +18°C° 0.2 mm 1 mps 614 mmHg 96%
    01:00 +18°C° 0.2 mm 1 mps 614 mmHg 96%
    02:00 +16°C° 0 mm 1 mps 614 mmHg 95%
    03:00 +16°C° 0 mm 1 mps 613 mmHg 95%
    04:00 +15°C° 0 mm 1 mps 613 mmHg 95%
    05:00 +16°C° 0 mm 1 mps 614 mmHg 94%
    06:00 +16°C° 0 mm 1 mps 614 mmHg 93%
    07:00 +16°C° 0 mm 1 mps 615 mmHg 92%
    08:00 +20°C° 0 mm 1 mps 616 mmHg 79%
    09:00 +23°C° 0 mm 1 mps 617 mmHg 66%
    10:00 +26°C° 0 mm 1 mps 618 mmHg 52%
    11:00 +25°C° 0.5 mm 1 mps 617 mmHg 62%
    12:00 +24°C° 0.5 mm 1 mps 616 mmHg 72%
    13:00 +23°C° 0.5 mm 2 mps 615 mmHg 82%
    14:00 +22°C° 1.1 mm 1 mps 614 mmHg 86%
    15:00 +21°C° 1.1 mm 1 mps 613 mmHg 90%
    16:00 +21°C° 1.1 mm 1 mps 613 mmHg 94%
    17:00 +20°C° 0.4 mm 1 mps 613 mmHg 95%
    18:00 +17°C° 0.4 mm 0 mps 613 mmHg 97%
    19:00 +16°C° 0.4 mm 0 mps 613 mmHg 99%
    20:00 +16°C° 0.4 mm 0 mps 614 mmHg 98%
    21:00 +16°C° 0.4 mm 0 mps 614 mmHg 98%
    22:00 +16°C° 0.4 mm 0 mps 615 mmHg 97%
    23:00 +16°C° 0.4 mm 0 mps 614 mmHg 97%

    9 December, Monday

    Time Temperature Precipitation Wind Pressure Humidity
    00:00 +15°C° 0.4 mm 0 mps 614 mmHg 97%
    01:00 +16°C° 0.4 mm 1 mps 614 mmHg 96%
    02:00 +16°C° 0.1 mm 1 mps 613 mmHg 96%
    03:00 +16°C° 0.1 mm 1 mps 613 mmHg 96%
    04:00 +16°C° 0.1 mm 1 mps 613 mmHg 95%
    05:00 +16°C° 0 mm 1 mps 614 mmHg 94%
    06:00 +16°C° 0 mm 1 mps 614 mmHg 94%
    07:00 +18°C° 0 mm 1 mps 614 mmHg 93%
    08:00 +20°C° 0.1 mm 1 mps 615 mmHg 86%
    09:00 +21°C° 0.1 mm 1 mps 616 mmHg 79%
    10:00 +23°C° 0.1 mm 1 mps 617 mmHg 72%
    11:00 +23°C° 1 mm 1 mps 616 mmHg 79%
    12:00 +22°C° 1 mm 1 mps 615 mmHg 85%
    13:00 +21°C° 1 mm 2 mps 614 mmHg 91%
    14:00 +21°C° 1.1 mm 1 mps 614 mmHg 92%
    15:00 +21°C° 1.1 mm 1 mps 613 mmHg 94%
    16:00 +20°C° 1.1 mm 1 mps 612 mmHg 96%
    17:00 +19°C° 0.2 mm 1 mps 612 mmHg 97%
    18:00 +19°C° 0.2 mm 1 mps 613 mmHg 97%
    19:00 +16°C° 0.2 mm 0 mps 613 mmHg 98%
    20:00 +16°C° 0.1 mm 0 mps 613 mmHg 98%
    21:00 +15°C° 0.1 mm 0 mps 614 mmHg 98%
    22:00 +16°C° 0.1 mm 1 mps 614 mmHg 98%
    23:00 +16°C° 0.1 mm 1 mps 614 mmHg 98%

    10 December, Tuesday

    Time Temperature Precipitation Wind Pressure Humidity
    00:00 +16°C° 0.1 mm 1 mps 613 mmHg 97%
    01:00 +16°C° 0.1 mm 1 mps 613 mmHg 97%
    02:00 +15°C° 0.1 mm 1 mps 613 mmHg 97%
    03:00 +15°C° 0.1 mm 1 mps 613 mmHg 96%
    04:00 +15°C° 0.1 mm 1 mps 612 mmHg 96%
    05:00 +16°C° 0 mm 1 mps 613 mmHg 94%
    06:00 +16°C° 0 mm 1 mps 614 mmHg 93%
    07:00 +18°C° 0 mm 1 mps 614 mmHg 91%
    08:00 +20°C° 0 mm 1 mps 615 mmHg 80%
    09:00 +22°C° 0 mm 1 mps 616 mmHg 68%
    10:00 +25°C° 0 mm 1 mps 617 mmHg 57%
    11:00 +25°C° 0 mm 2 mps 617 mmHg 55%
    12:00 +26°C° 0 mm 2 mps 616 mmHg 54%
    13:00 +26°C° 0 mm 3 mps 616 mmHg 53%
    14:00 +25°C° 0.2 mm 2 mps 615 mmHg 60%
    15:00 +24°C° 0.2 mm 2 mps 614 mmHg 68%
    16:00 +21°C° 0.2 mm 2 mps 613 mmHg 76%
    17:00 +21°C° 0.1 mm 1 mps 613 mmHg 83%
    18:00 +19°C° 0.1 mm 1 mps 613 mmHg 91%
    19:00 +16°C° 0.1 mm 0 mps 613 mmHg 98%
    20:00 +16°C° 0 mm 0 mps 613 mmHg 98%
    21:00 +16°C° 0 mm 0 mps 614 mmHg 97%
    22:00 +18°C° 0 mm 1 mps 614 mmHg 96%
    23:00 +16°C° 0 mm 1 mps 614 mmHg 96%

    11 December, Wednesday

    Time Temperature Precipitation Wind Pressure Humidity
    00:00 +16°C° 0 mm 1 mps 613 mmHg 96%
    01:00 +15°C° 0 mm 1 mps 613 mmHg 96%
    02:00 +15°C° 0 mm 1 mps 613 mmHg 96%
    03:00 +15°C° 0 mm 1 mps 613 mmHg 95%
    04:00 +15°C° 0 mm 1 mps 612 mmHg 95%
    05:00 +16°C° 0 mm 1 mps 613 mmHg 94%
    06:00 +16°C° 0 mm 1 mps 614 mmHg 92%
    07:00 +18°C° 0 mm 1 mps 614 mmHg 91%
    08:00 +20°C° 0.1 mm 1 mps 615 mmHg 81%
    09:00 +23°C° 0.1 mm 1 mps 617 mmHg 72%
    10:00 +25°C° 0.1 mm 1 mps 618 mmHg 62%
    11:00 +25°C° 1 mm 1 mps 617 mmHg 69%
    12:00 +24°C° 1 mm 1 mps 615 mmHg 76%
    13:00 +23°C° 1 mm 1 mps 614 mmHg 84%
    14:00 +23°C° 1.3 mm 1 mps 614 mmHg 87%
    15:00 +22°C° 1.3 mm 1 mps 613 mmHg 90%
    16:00 +21°C° 1.3 mm 1 mps 612 mmHg 94%
    17:00 +20°C° 0.6 mm 1 mps 612 mmHg 95%
    18:00 +17°C° 0.6 mm 0 mps 613 mmHg 97%
    19:00 +16°C° 0.6 mm 0 mps 613 mmHg 99%
    20:00 +16°C° 0.2 mm 0 mps 613 mmHg 98%
    21:00 +16°C° 0.2 mm 0 mps 614 mmHg 98%
    22:00 +16°C° 0.2 mm 0 mps 614 mmHg 98%
    23:00 +15°C° 0.3 mm 0 mps 614 mmHg 97%
    Show more